Tracking 26325 objects as of 29-Nov-2022
HD Live streaming from Space Station
objects crossing your sky now

COSMOS 520

Track COSMOS 520 now!
COSMOS 520 is classified as:


NORAD ID: 6192
Int'l Code: 1972-072A
Perigee: 8,553.2 km
Apogee: 31,687.2 km
Inclination: 72.3 °
Period: 715.2 minutes
Semi major axis: 26491 km
RCS: 12.5618 m2 (large)
Launch date: September 19, 1972
Source: Commonwealth of Independent States (former USSR) (CIS)
Launch site: PLESETSK MISSILE AND SPACE COMPLEX (PKMTR)
aabbcc
Your satellite tracking list
Your tracking list is empty




NASA's NSSDC Master Catalog

Two Line Element Set (TLE):
1 06192U 72072A   22328.41031073  .00000078  00000-0  00000-0 0  9997
2 06192  72.2838 271.1740 4366365 225.9540 344.3256  2.01349539368990
Source of the keplerian elements: AFSPC